Theta_e
289 289 288 287 286 284 283 282 282 281 280 280 280 280 279 279 279 278 278 277 277 277 276 276 276 276 274 274 274 274 273 273 271 272 273 273 273 274 275 275 276 276 276
288 288 287 286 284 283 283 282 281 280 280 280 280 279 279 278 278 278 277 278 277 276 276 276 275 276 274 273 273 273 273 272 271 270 272 272 272 274 274 274 276 277 276
287 287 286 284 284 283 282 281 280 279 279 280 279 279 279 278 277 278 278 278 277 276 276 275 275 274 273 273 272 272 272 273 272 271 270 272 273 274 274 275 274 274 276
286 286 285 284 284 283 282 281 279 279 279 279 279 279 278 278 278 278 277 277 277 276 276 275 275 274 274 273 272 272 272 272 272 271 270 271 272 274 273 272 272 274 274
285 285 285 284 284 282 281 280 279 279 279 279 278 278 277 277 278 277 277 277 276 276 275 276 275 275 278 276 273 272 272 271 271 270 270 271 271 272 271 272 271 272 273
285 284 284 283 282 281 281 280 279 279 279 278 278 277 277 277 282 282 279 277 276 275 274 274 275 275 275 280 280 280 276 271 265 266 269 270 272 272 272 272 272 270 268
284 284 284 283 282 281 280 279 278 278 278 277 277 277 277 277 283 284 282 277 276 276 275 275 275 275 274 274 278 281 281 281 280 273 268 273 272 272 273 272 272 270 269
283 282 282 283 282 280 279 279 279 278 278 277 277 277 277 277 284 285 283 277 276 276 275 275 274 274 274 273 273 272 273 273 274 275 275 274 274 275 275 274 271 268 269
282 282 281 281 281 279 278 278 279 278 278 277 278 277 277 277 283 285 283 278 276 276 276 275 275 274 276 279 274 271 272 273 277 280 280 281 282 281 277 272 263 259 263
282 282 281 282 281 280 280 279 279 279 278 277 277 277 277 277 282 284 284 279 277 276 276 275 277 275 278 279 276 273 271 272 273 272 273 274 275 271 274 271 268 260 263
280 280 281 282 281 281 280 279 278 278 277 277 277 276 277 277 277 283 285 279 278 277 276 275 275 280 280 280 280 275 274 275 274 274 270 269 268 268 268 269 269 268 265
281 280 281 282 281 281 280 279 278 278 277 276 276 276 276 276 278 281 285 285 282 278 276 276 275 278 280 281 280 281 281 281 272 267 266 266 266 267 267 268 269 269 269
279 280 281 281 281 281 280 279 278 278 277 277 276 277 278 275 276 282 282 284 284 280 277 277 278 279 280 280 281 281 280 274 269 266 266 267 267 267 267 267 267 267 267
282 281 282 281 281 282 282 281 280 279 279 280 279 278 279 275 274 274 277 279 281 282 282 279 279 279 279 278 274 276 274 273 271 269 267 267 267 266 263 265 264 264 262
283 281 282 282 282 282 281 282 282 282 283 281 280 279 278 275 274 276 275 274 275 276 268 264 265 268 269 269 269 270 271 271 268 268 267 266 265 265 264 264 263 261 258
277 278 279 279 278 277 276 274 280 279 283 284 283 279 272 277 279 279 279 279 278 278 268 261 262 267 268 270 269 268 268 268 268 267 266 264 264 263 263 261 261 256 257
274 271 270 271 271 273 272 273 271 272 280 281 279 278 278 275 278 278 279 279 280 279 273 270 268 268 267 267 265 264 264 265 266 265 264 264 263 262 260 258 258 257 256
268 268 268 267 268 267 267 267 268 269 269 266 276 278 278 277 278 278 278 276 264 265 263 265 263 262 261 260 261 261 260 259 259 258 258 257 255 258 255 254 255 253 253
263 261 261 261 260 261 261 260 260 261 263 260 262 268 268 276 276 275 270 258 258 260 260 259 258 257 256 254 253 252 251 252 252 250 248 249 252 252 250 253 254 256 256
258 260 258 258 257 258 257 258 257 257 258 259 258 255 255 259 257 253 253 254 252 251 250 250 248 247 246 246 245 245 245 245 245 245 247 248 249 250 254 251 255 255 255
256 257 258 256 255 254 254 255 256 256 256 255 255 255 263 253 253 252 250 248 248 247 247 246 245 243 242 242 242 242 243 247 246 246 245 247 249 251 252 255 255 255 255
255 254 254 254 254 255 253 255 256 257 256 256 253 254 266 252 250 248 248 247 245 244 243 243 243 243 245 244 244 243 244 246 245 245 248 250 250 250 253 254 253 254 254
255 255 254 253 254 254 253 251 252 253 252 250 251 250 249 247 247 246 245 243 242 242 240 240 242 243 244 244 244 246 247 248 249 248 249 249 249 250 252 252 252 251 251
254 254 254 251 252 252 251 249 249 251 250 249 248 247 247 245 244 244 243 242 241 241 240 242 243 245 245 245 245 245 247 249 247 250 251 251 249 251 252 251 251 249 248
250 251 250 249 248 248 249 248 249 247 247 249 247 245 244 243 243 243 243 242 243 242 244 244 244 245 247 247 247 245 246 253 251 250 249 248 248 250 250 248 244 241 243
248 248 247 247 247 246 247 247 246 247 246 247 246 245 246 246 247 246 245 244 246 246 246 245 245 247 247 248 248 250 251 255 252 252 248 248 248 248 245 241 239 241 243
Wind_Speed
12 12 13 13 13 12 12 11 11 11 11 12 12 10 10 10 8 8 7 7 8 7 5 6 6 5 4 4 3 3 3 3 3 3 3 2 3 4 6 5 7 7 7
11 11 12 12 12 13 13 13 12 12 10 11 10 10 9 8 8 9 10 7 9 8 6 7 6 5 5 5 3 4 4 3 3 5 2 3 5 3 6 7 6 7 7
13 13 12 13 14 14 14 13 13 12 11 10 11 11 11 10 9 7 8 8 7 7 7 7 7 6 5 4 4 4 3 4 4 3 3 2 2 2 6 6 8 6 6
13 14 14 15 15 14 13 13 12 11 11 11 10 9 9 10 9 9 9 8 7 6 6 6 7 7 6 6 5 5 5 4 3 3 3 3 3 3 3 7 11 6 9
14 14 15 14 14 14 14 14 12 12 12 11 10 8 8 8 7 9 9 8 8 7 5 6 6 6 9 8 5 5 5 4 3 3 2 2 3 3 5 5 8 11 11
15 15 13 15 16 16 16 15 14 13 12 11 10 10 10 7 16 18 12 8 7 7 7 6 5 6 8 13 14 14 11 5 4 3 2 4 6 3 4 6 8 9 8
14 13 14 15 16 15 15 15 15 14 13 12 11 11 11 8 19 19 17 7 7 8 7 6 6 5 7 6 12 15 14 16 14 6 5 5 4 4 5 8 7 9 10
13 13 13 14 14 14 14 15 15 14 14 13 12 11 10 8 19 18 16 5 6 7 7 7 7 6 7 7 6 7 7 7 7 5 4 5 7 6 6 6 7 9 11
14 12 13 14 14 15 16 16 12 13 11 12 11 11 10 7 18 16 15 7 7 8 6 7 7 7 11 15 9 8 9 9 10 15 16 18 16 11 9 6 4 2 10
10 11 10 12 13 14 14 13 11 11 11 8 8 8 8 7 17 18 15 6 7 6 6 8 15 10 15 17 10 7 10 8 5 5 4 6 4 4 9 5 4 3 5
7 8 10 9 9 9 9 6 8 8 8 8 8 7 8 9 8 18 18 7 8 7 7 7 7 18 19 18 18 9 11 7 10 8 5 3 3 4 5 5 6 6 6
8 9 9 9 8 9 11 8 9 9 8 7 7 5 5 6 13 18 21 23 15 9 9 6 5 16 18 19 16 17 18 17 2 3 2 3 4 5 4 4 6 7 8
10 9 9 10 10 11 11 11 9 9 9 9 8 7 7 6 7 21 20 24 25 12 7 10 14 15 17 15 19 19 14 3 3 3 5 5 4 3 3 2 5 8 10
9 9 9 10 10 10 8 8 8 9 8 8 8 9 9 6 6 6 8 10 20 15 13 8 11 12 13 12 4 8 3 2 3 5 4 2 1 2 2 4 4 5 6
8 7 7 6 8 8 6 7 7 6 9 9 8 8 8 7 8 12 12 8 8 8 4 2 1 1 2 3 3 3 4 4 4 3 4 3 4 4 4 3 4 3 4
6 5 5 6 5 5 5 3 5 2 10 10 7 7 1 6 11 17 18 16 14 15 2 3 2 4 6 5 4 3 2 3 2 3 3 4 5 5 4 2 3 2 5
5 4 3 4 4 5 4 5 4 1 6 8 6 6 8 8 10 10 11 12 14 14 6 5 3 2 1 1 1 1 1 1 1 3 4 5 5 4 4 2 3 4 5
5 5 4 3 4 4 4 4 4 5 5 1 3 5 10 9 10 9 8 10 3 5 2 2 2 2 1 1 1 1 1 2 2 2 2 2 2 3 2 3 3 4 4
5 4 3 3 3 4 4 3 3 4 4 3 2 7 6 11 8 8 6 3 3 2 2 2 2 2 2 3 2 2 2 2 2 2 3 2 3 3 3 4 4 7 7
5 6 5 4 3 4 3 4 3 3 4 3 3 2 1 4 2 1 2 2 3 2 2 3 2 3 3 3 2 2 2 2 3 3 3 3 3 3 5 3 5 5 5
4 4 6 5 4 3 3 4 3 4 4 3 2 3 8 4 3 2 2 2 3 3 3 3 3 3 3 3 3 3 3 4 3 3 3 4 4 4 4 5 5 5 5
4 4 3 4 2 4 3 3 3 3 3 4 1 2 8 3 3 3 2 3 3 3 3 4 3 4 4 4 4 3 4 5 4 3 4 4 4 2 3 5 4 5 5
5 5 5 4 4 4 4 3 3 3 3 3 3 3 2 2 3 3 3 3 3 3 3 3 3 4 3 4 4 5 5 6 6 4 4 4 3 3 4 4 4 4 4
4 4 4 3 3 3 3 3 2 3 2 2 2 2 2 2 3 4 4 3 3 3 3 4 4 6 5 5 4 5 5 5 4 5 6 4 4 4 4 4 5 5 4
4 4 4 3 3 3 3 2 2 2 2 2 3 2 2 3 3 4 4 3 4 3 5 4 4 6 8 9 8 8 7 10 6 6 5 5 6 6 4 3 4 3 3
3 3 3 2 2 2 2 2 3 2 3 3 3 3 3 3 4 4 4 4 4 4 5 4 5 9 9 8 9 9 8 10 9 9 6 6 5 5 4 5 5 4 4
Wind_Direction
174 172 168 167 165 161 167 163 164 158 161 158 160 152 150 147 146 134 136 143 135 134 131 125 119 129 115 118 131 133 142 141 181 285 243 262 282 260 303 292 290 294 301
172 171 173 165 160 168 172 167 164 166 167 157 152 153 154 150 146 149 150 152 148 148 143 126 133 132 140 158 163 167 162 178 172 234 269 254 235 273 289 288 297 301 303
167 168 171 171 173 177 174 170 166 160 163 157 157 162 160 159 155 154 153 155 155 149 149 147 154 158 169 167 168 178 186 208 196 209 257 250 277 297 311 305 309 295 291
172 174 177 178 177 177 169 169 167 167 162 165 167 163 163 162 163 157 152 151 145 150 158 159 166 177 178 177 183 196 202 207 204 216 231 264 260 273 284 319 317 317 318
178 182 186 174 172 170 168 168 167 169 168 165 158 155 158 165 165 162 159 161 157 161 161 176 179 183 199 194 176 203 206 207 204 220 237 243 272 304 315 310 305 314 319
183 189 178 173 171 174 172 170 165 168 163 160 167 166 167 176 181 177 161 160 170 166 182 194 182 188 211 220 221 215 208 192 206 191 211 253 278 271 283 300 304 317 320
190 184 180 178 177 176 168 163 166 167 159 168 169 168 178 175 184 181 176 165 176 185 183 186 193 195 197 219 241 242 243 241 236 198 201 233 257 232 283 296 295 297 289
188 185 178 176 173 169 167 172 168 167 170 173 174 176 176 184 189 182 184 166 185 192 191 193 200 194 199 206 217 234 242 245 249 259 252 255 239 252 255 290 315 303 296
189 186 178 173 172 168 172 173 169 165 172 174 173 167 175 174 192 186 190 180 204 207 194 201 204 212 216 227 215 228 243 241 245 256 257 253 259 274 316 322 300 335 303
181 176 170 172 171 175 173 171 167 167 165 160 160 175 172 173 194 199 196 185 208 207 204 214 215 216 228 232 235 224 246 245 222 240 253 269 275 286 295 283 272 250 269
135 139 155 163 161 158 146 136 143 144 142 152 159 165 178 181 192 216 214 202 214 212 215 221 218 230 235 238 239 223 234 252 245 248 197 186 235 246 237 238 241 248 262
129 136 139 139 138 138 137 131 137 144 146 159 164 177 196 203 206 216 222 227 216 216 220 224 211 225 241 247 249 251 259 262 177 149 178 222 225 223 213 222 240 254 260
121 129 134 131 137 143 144 148 153 165 177 183 186 191 214 206 216 222 228 231 233 223 217 220 224 239 245 252 254 254 262 176 174 182 222 233 197 191 207 226 253 264 269
132 139 145 150 157 163 165 170 174 180 188 188 193 210 218 199 199 202 218 229 236 236 233 218 222 229 232 238 234 262 283 215 217 243 245 221 175 205 202 224 258 276 285
138 146 156 163 164 165 169 178 193 200 197 193 202 200 201 213 214 209 206 205 209 212 112 78 109 191 236 251 242 222 249 249 234 236 241 240 240 241 245 217 249 277 257
125 141 151 144 137 136 139 96 74 161 196 208 203 191 205 216 216 220 218 215 219 222 205 161 200 209 231 232 230 233 190 216 241 260 246 252 258 251 255 204 247 238 278
129 123 105 107 121 139 136 156 142 58 190 193 179 206 209 209 202 199 202 206 208 200 198 206 189 147 121 90 84 172 206 220 220 248 264 261 255 243 241 228 256 267 274
100 109 129 139 139 137 148 143 138 148 152 86 232 180 184 159 179 184 151 130 82 51 85 134 146 130 142 169 210 250 259 263 227 232 244 251 262 261 255 244 241 252 252
81 72 84 93 93 111 116 118 130 128 134 133 58 64 33 113 131 117 75 107 129 125 124 132 137 153 172 170 192 252 252 250 240 248 261 240 245 211 242 244 245 253 264
63 81 72 82 78 80 83 108 104 114 133 143 128 161 66 56 96 43 42 96 102 112 139 154 191 187 192 191 211 218 248 258 253 234 243 236 244 215 249 229 245 257 253
91 85 102 91 96 110 122 131 129 127 137 139 156 193 180 144 155 141 143 130 148 171 187 187 206 218 212 212 206 214 219 252 240 243 241 244 231 233 225 248 252 247 257
80 81 63 87 88 85 85 97 109 115 120 130 115 330 111 79 112 143 161 187 200 204 190 175 207 215 214 207 206 202 220 238 242 232 244 236 223 214 232 245 240 251 256
75 81 71 65 74 85 74 69 94 106 120 125 139 138 134 164 171 182 206 223 216 226 199 187 210 255 229 227 207 203 209 226 228 205 227 230 220 220 221 238 241 246 248
80 87 98 93 79 84 103 109 110 122 132 146 161 184 189 190 206 224 234 247 247 252 223 209 210 229 250 246 224 214 222 233 216 219 215 214 221 229 226 225 239 239 246
71 83 87 100 114 127 121 133 147 167 179 192 210 219 234 233 240 244 245 231 235 235 245 223 218 234 245 252 251 240 232 249 235 207 205 202 215 219 213 219 226 224 227
64 73 84 92 102 133 162 191 220 221 217 224 227 226 226 235 240 239 243 241 239 238 244 233 235 243 249 247 247 248 238 241 233 225 199 197 207 216 193 216 217 219 230